Time,TemperatureF,DewpointF,PressureIn,WindDirection,WindDirectionDegrees,WindSpeedMPH,WindSpeedGustMPH,Humidity,HourlyPrecipIn,Conditions,Clouds,dailyrainin,SoftwareType,DateUTC
2013-02-23 00:03:00,32.0,30.0,29.95,West,275,1.0,6.0,94,0.00,,,0.10,,2013-02-23 05:03:00,
2013-02-23 00:12:00,32.0,30.0,29.95,West,275,1.0,6.0,94,0.00,,,0.10,,2013-02-23 05:12:00,
2013-02-23 00:23:00,32.0,30.0,29.95,West,281,2.0,7.0,93,0.00,,,0.10,,2013-02-23 05:23:00,
2013-02-23 00:33:00,32.0,30.0,29.95,WNW,290,0.0,8.0,93,0.00,,,0.10,,2013-02-23 05:33:00,
2013-02-23 00:42:00,32.0,30.0,29.95,WNW,290,0.0,8.0,93,0.00,,,0.10,,2013-02-23 05:42:00,
2013-02-23 00:52:00,32.0,30.0,29.95,West,273,2.0,6.0,94,0.00,,,0.10,,2013-02-23 05:52:00,
2013-02-23 01:02:00,32.0,30.0,29.95,West,274,2.0,8.0,94,0.00,,,0.10,,2013-02-23 06:02:00,
2013-02-23 01:11:00,32.0,30.0,29.95,West,274,2.0,8.0,94,0.00,,,0.10,,2013-02-23 06:11:00,
2013-02-23 01:23:00,31.0,29.0,29.95,WNW,294,3.0,10.0,94,0.00,,,0.10,,2013-02-23 06:23:00,
2013-02-23 01:32:00,31.0,29.0,29.95,West,267,5.0,11.0,93,0.00,,,0.10,,2013-02-23 06:32:00,
2013-02-23 01:42:00,31.0,29.0,29.95,West,267,5.0,11.0,93,0.00,,,0.10,,2013-02-23 06:42:00,
2013-02-23 01:52:00,31.0,29.0,29.96,WSW,255,2.0,7.0,93,0.00,,,0.10,,2013-02-23 06:52:00,
2013-02-23 02:01:00,31.0,29.0,29.95,West,278,4.0,8.0,92,0.00,,,0.10,,2013-02-23 07:01:00,
2013-02-23 02:11:00,31.0,29.0,29.95,West,278,4.0,8.0,92,0.00,,,0.10,,2013-02-23 07:11:00,
2013-02-23 02:21:00,31.0,28.0,29.95,West,281,2.0,7.0,90,0.00,,,0.10,,2013-02-23 07:21:00,
2013-02-23 02:32:00,31.0,28.0,29.95,West,263,3.0,8.0,89,0.00,,,0.10,,2013-02-23 07:32:00,
2013-02-23 02:42:00,31.0,28.0,29.95,West,263,3.0,8.0,89,0.00,,,0.10,,2013-02-23 07:42:00,
2013-02-23 02:52:00,31.0,28.0,29.95,WNW,292,2.0,6.0,89,0.00,,,0.10,,2013-02-23 07:52:00,
2013-02-23 03:01:00,31.0,28.0,29.95,WNW,283,5.0,11.0,88,0.00,,,0.10,,2013-02-23 08:01:00,
2013-02-23 03:11:00,31.0,28.0,29.95,WNW,283,5.0,11.0,88,0.00,,,0.10,,2013-02-23 08:11:00,
2013-02-23 03:21:00,30.0,27.0,29.94,WNW,289,5.0,9.0,89,0.00,,,0.10,,2013-02-23 08:21:00,
2013-02-23 03:32:00,30.0,27.0,29.94,West,273,3.0,9.0,88,0.00,,,0.10,,2013-02-23 08:32:00,
2013-02-23 03:42:00,30.0,27.0,29.94,West,273,3.0,9.0,88,0.00,,,0.10,,2013-02-23 08:42:00,
2013-02-23 03:53:00,30.0,27.0,29.94,West,275,2.0,5.0,89,0.00,,,0.10,,2013-02-23 08:53:00,
2013-02-23 04:02:00,30.0,26.0,29.94,WNW,300,3.0,12.0,85,0.00,,,0.10,,2013-02-23 09:02:00,
2013-02-23 04:11:00,30.0,26.0,29.94,WNW,300,3.0,12.0,85,0.00,,,0.10,,2013-02-23 09:11:00,
2013-02-23 04:22:00,30.0,25.0,29.94,West,273,3.0,9.0,81,0.00,,,0.10,,2013-02-23 09:22:00,
2013-02-23 04:32:00,29.0,24.0,29.94,WNW,282,2.0,7.0,81,0.00,,,0.10,,2013-02-23 09:32:00,
2013-02-23 04:42:00,29.0,24.0,29.94,WNW,282,2.0,7.0,81,0.00,,,0.10,,2013-02-23 09:42:00,
2013-02-23 04:52:00,29.0,24.0,29.94,WSW,240,1.0,6.0,82,0.00,,,0.10,,2013-02-23 09:52:00,
2013-02-23 05:01:00,29.0,25.0,29.94,WNW,285,2.0,6.0,84,0.00,,,0.10,,2013-02-23 10:01:00,
2013-02-23 05:11:00,29.0,25.0,29.94,WNW,285,2.0,6.0,84,0.00,,,0.10,,2013-02-23 10:11:00,
2013-02-23 05:21:00,29.0,25.0,29.94,West,267,1.0,7.0,84,0.00,,,0.10,,2013-02-23 10:21:00,
2013-02-23 05:32:00,29.0,25.0,29.95,WSW,249,1.0,6.0,85,0.00,,,0.10,,2013-02-23 10:32:00,
2013-02-23 05:42:00,29.0,25.0,29.95,WSW,249,1.0,6.0,85,0.00,,,0.10,,2013-02-23 10:42:00,
2013-02-23 05:52:00,29.0,25.0,29.95,WSW,249,1.0,6.0,85,0.00,,,0.10,,2013-02-23 10:52:00,
2013-02-23 06:02:00,29.0,25.0,29.95,WSW,244,2.0,7.0,86,0.00,,,0.10,,2013-02-23 11:02:00,
2013-02-23 06:11:00,29.0,25.0,29.95,WSW,244,2.0,7.0,86,0.00,,,0.10,,2013-02-23 11:11:00,
2013-02-23 06:22:00,29.0,25.0,29.95,SW,233,2.0,7.0,86,0.00,,,0.10,,2013-02-23 11:22:00,
2013-02-23 06:32:00,28.0,24.0,29.96,SSW,207,2.0,5.0,86,0.00,,,0.10,,2013-02-23 11:32:00,
2013-02-23 06:42:00,28.0,24.0,29.96,SSW,207,2.0,5.0,86,0.00,,,0.10,,2013-02-23 11:42:00,
2013-02-23 06:53:00,28.0,24.0,29.95,WNW,283,0.0,7.0,86,0.00,,,0.10,,2013-02-23 11:53:00,
2013-02-23 07:02:00,28.0,24.0,29.96,West,273,2.0,7.0,86,0.00,,,0.10,,2013-02-23 12:02:00,
2013-02-23 07:11:00,28.0,24.0,29.96,West,273,2.0,7.0,86,0.00,,,0.10,,2013-02-23 12:11:00,
2013-02-23 07:21:00,28.0,24.0,29.96,West,274,1.0,8.0,85,0.00,,,0.10,,2013-02-23 12:21:00,
2013-02-23 07:32:00,28.0,24.0,29.96,WNW,291,1.0,9.0,86,0.00,,,0.10,,2013-02-23 12:32:00,
2013-02-23 07:42:00,28.0,24.0,29.96,WNW,291,1.0,9.0,86,0.00,,,0.10,,2013-02-23 12:42:00,
2013-02-23 07:53:00,28.0,24.0,29.97,West,281,3.0,9.0,86,0.00,,,0.10,,2013-02-23 12:53:00,
2013-02-23 08:01:00,28.0,24.0,29.97,West,281,3.0,9.0,86,0.00,,,0.10,,2013-02-23 13:01:00,
2013-02-23 08:11:00,28.0,24.0,29.97,West,281,3.0,9.0,86,0.00,,,0.10,,2013-02-23 13:11:00,
2013-02-23 08:22:00,28.0,25.0,29.97,WNW,286,0.0,6.0,88,0.00,,,0.10,,2013-02-23 13:22:00,
2013-02-23 08:32:00,28.0,25.0,29.97,WNW,286,0.0,6.0,88,0.00,,,0.10,,2013-02-23 13:32:00,
2013-02-23 08:42:00,28.0,25.0,29.97,WNW,286,0.0,6.0,88,0.00,,,0.10,,2013-02-23 13:42:00,
2013-02-23 08:52:00,28.0,24.0,29.98,WSW,250,2.0,5.0,86,0.00,,,0.10,,2013-02-23 13:52:00,
2013-02-23 09:02:00,28.0,24.0,29.98,WSW,252,4.0,10.0,85,0.00,,,0.10,,2013-02-23 14:02:00,
2013-02-23 09:11:00,28.0,24.0,29.98,WSW,252,4.0,10.0,85,0.00,,,0.10,,2013-02-23 14:11:00,
2013-02-23 09:22:00,28.0,24.0,29.98,NW,309,2.0,7.0,85,0.00,,,0.10,,2013-02-23 14:22:00,
2013-02-23 09:32:00,28.0,24.0,29.98,NW,309,2.0,7.0,85,0.00,,,0.10,,2013-02-23 14:32:00,
2013-02-23 09:42:00,28.0,24.0,29.98,NW,309,2.0,7.0,85,0.00,,,0.10,,2013-02-23 14:42:00,
2013-02-23 09:52:00,28.0,24.0,29.98,NW,309,2.0,7.0,85,0.00,,,0.10,,2013-02-23 14:52:00,
2013-02-23 10:02:00,28.0,24.0,29.98,NW,309,2.0,7.0,85,0.00,,,0.10,,2013-02-23 15:02:00,
2013-02-23 10:22:00,29.0,23.0,29.96,WSW,256,4.0,13.0,79,0.00,,,0.10,,2013-02-23 15:22:00,
2013-02-23 10:32:00,29.0,23.0,29.96,WNW,284,3.0,11.0,79,0.00,,,0.10,,2013-02-23 15:32:00,
2013-02-23 10:42:00,29.0,23.0,29.96,WNW,284,3.0,11.0,79,0.00,,,0.10,,2013-02-23 15:42:00,
2013-02-23 10:52:00,29.0,24.0,29.96,WNW,300,3.0,11.0,81,0.00,,,0.10,,2013-02-23 15:52:00,
2013-02-23 11:01:00,29.0,24.0,29.96,WNW,282,6.0,11.0,80,0.00,,,0.10,,2013-02-23 16:01:00,
2013-02-23 11:11:00,29.0,24.0,29.96,WNW,282,6.0,11.0,80,0.00,,,0.10,,2013-02-23 16:11:00,
2013-02-23 11:21:00,29.0,24.0,29.96,WNW,282,6.0,11.0,80,0.00,,,0.10,,2013-02-23 16:21:00,
2013-02-23 11:32:00,30.0,24.0,29.96,WNW,296,4.0,10.0,79,0.00,,,0.10,,2013-02-23 16:32:00,
2013-02-23 11:42:00,30.0,24.0,29.96,WNW,296,4.0,10.0,79,0.00,,,0.10,,2013-02-23 16:42:00,
2013-02-23 11:51:00,30.0,24.0,29.96,WNW,296,3.0,8.0,78,0.00,,,0.10,,2013-02-23 16:51:00,
2013-02-23 11:52:00,30.0,24.0,29.96,West,274,4.0,10.0,79,0.00,,,0.10,,2013-02-23 16:52:00,
2013-02-23 12:01:00,30.0,24.0,29.96,West,274,4.0,10.0,79,0.00,,,0.10,,2013-02-23 17:01:00,
2013-02-23 12:11:00,30.0,24.0,29.96,West,274,4.0,10.0,79,0.00,,,0.10,,2013-02-23 17:11:00,
2013-02-23 12:22:00,30.0,24.0,29.96,WNW,296,3.0,8.0,78,0.00,,,0.10,,2013-02-23 17:22:00,
2013-02-23 12:32:00,30.0,24.0,29.96,WNW,296,3.0,8.0,78,0.00,,,0.10,,2013-02-23 17:32:00,
2013-02-23 12:42:00,30.0,24.0,29.96,WNW,296,3.0,8.0,78,0.00,,,0.10,,2013-02-23 17:42:00,
2013-02-23 13:02:00,30.0,24.0,29.96,West,278,2.0,9.0,78,0.00,,,0.10,,2013-02-23 18:02:00,
2013-02-23 13:12:00,30.0,24.0,29.96,West,278,2.0,9.0,78,0.00,,,0.10,,2013-02-23 18:12:00,
2013-02-23 13:22:00,30.0,25.0,29.94,SW,222,1.0,10.0,80,0.00,,,0.10,,2013-02-23 18:22:00,
2013-02-23 13:32:00,31.0,26.0,29.94,SW,220,2.0,9.0,80,0.01,,,0.11,,2013-02-23 18:32:00,
2013-02-23 13:42:00,31.0,26.0,29.94,SW,220,2.0,9.0,80,0.01,,,0.11,,2013-02-23 18:42:00,
2013-02-23 13:52:00,31.0,26.0,29.94,SSW,213,2.0,7.0,81,0.01,,,0.11,,2013-02-23 18:52:00,
2013-02-23 14:01:00,30.0,25.0,29.94,West,278,1.0,8.0,81,0.01,,,0.11,,2013-02-23 19:01:00,
2013-02-23 14:11:00,30.0,25.0,29.94,West,278,1.0,8.0,81,0.01,,,0.11,,2013-02-23 19:11:00,
2013-02-23 14:21:00,30.0,25.0,29.94,West,278,1.0,8.0,81,0.01,,,0.11,,2013-02-23 19:21:00,
2013-02-23 14:32:00,31.0,26.0,29.93,NW,315,1.0,8.0,80,0.00,,,0.08,,2013-02-23 19:32:00,
2013-02-23 14:42:00,31.0,26.0,29.93,NW,315,1.0,8.0,80,0.00,,,0.08,,2013-02-23 19:42:00,
2013-02-23 14:52:00,31.0,25.0,29.93,West,259,2.0,8.0,78,0.00,,,0.08,,2013-02-23 19:52:00,
2013-02-23 15:01:00,32.0,26.0,29.92,West,267,1.0,9.0,77,0.00,,,0.08,,2013-02-23 20:01:00,
2013-02-23 15:11:00,32.0,26.0,29.92,West,267,1.0,9.0,77,0.00,,,0.08,,2013-02-23 20:11:00,
2013-02-23 15:21:00,32.0,25.0,29.92,SSW,213,2.0,9.0,75,0.00,,,0.04,,2013-02-23 20:21:00,
2013-02-23 15:32:00,31.0,25.0,29.91,WSW,250,3.0,8.0,77,0.00,,,0.04,,2013-02-23 20:32:00,
2013-02-23 15:42:00,31.0,25.0,29.91,WSW,250,3.0,8.0,77,0.00,,,0.04,,2013-02-23 20:42:00,
2013-02-23 15:52:00,32.0,25.0,29.91,WNW,288,2.0,8.0,76,0.00,,,0.04,,2013-02-23 20:52:00,
2013-02-23 16:02:00,32.0,25.0,29.91,WNW,288,2.0,8.0,76,0.00,,,0.04,,2013-02-23 21:02:00,
2013-02-23 16:11:00,32.0,25.0,29.91,WNW,288,2.0,8.0,76,0.00,,,0.04,,2013-02-23 21:11:00,
2013-02-23 16:22:00,31.0,25.0,29.91,West,271,3.0,9.0,77,0.00,,,0.03,,2013-02-23 21:22:00,
2013-02-23 16:32:00,31.0,25.0,29.91,West,271,3.0,9.0,77,0.00,,,0.03,,2013-02-23 21:32:00,
2013-02-23 16:42:00,31.0,25.0,29.91,West,271,3.0,9.0,77,0.00,,,0.03,,2013-02-23 21:42:00,
2013-02-23 16:52:00,31.0,25.0,29.93,WNW,282,3.0,8.0,77,0.00,,,0.03,,2013-02-23 21:52:00,
2013-02-23 17:02:00,31.0,25.0,29.93,WNW,284,4.0,8.0,79,0.00,,,0.03,,2013-02-23 22:02:00,
2013-02-23 17:11:00,31.0,25.0,29.93,WNW,284,4.0,8.0,79,0.00,,,0.03,,2013-02-23 22:11:00,
2013-02-23 17:22:00,31.0,25.0,29.93,WNW,284,4.0,8.0,79,0.00,,,0.03,,2013-02-23 22:22:00,
2013-02-23 17:32:00,31.0,25.0,29.93,WNW,284,4.0,8.0,79,0.00,,,0.03,,2013-02-23 22:32:00,
2013-02-23 17:52:00,30.0,25.0,29.93,West,269,2.0,7.0,81,0.00,,,0.02,,2013-02-23 22:52:00,
2013-02-23 18:01:00,30.0,25.0,29.93,West,277,2.0,10.0,80,0.00,,,0.02,,2013-02-23 23:01:00,
2013-02-23 18:11:00,30.0,25.0,29.93,West,277,2.0,10.0,80,0.00,,,0.02,,2013-02-23 23:11:00,
2013-02-23 18:22:00,30.0,25.0,29.94,WSW,250,2.0,10.0,81,0.00,,,0.01,,2013-02-23 23:22:00,
2013-02-23 18:32:00,30.0,24.0,29.93,West,279,1.0,7.0,79,0.00,,,0.01,,2013-02-23 23:32:00,
2013-02-23 18:42:00,30.0,24.0,29.93,West,279,1.0,7.0,79,0.00,,,0.01,,2013-02-23 23:42:00,
2013-02-23 18:52:00,29.0,24.0,29.94,WNW,282,3.0,9.0,80,0.00,,,0.01,,2013-02-23 23:52:00,
2013-02-23 19:02:00,29.0,24.0,29.94,West,279,3.0,9.0,82,0.00,,,0.01,,2013-02-24 00:02:00,
2013-02-23 19:11:00,29.0,24.0,29.94,West,279,3.0,9.0,82,0.00,,,0.01,,2013-02-24 00:11:00,
2013-02-23 19:22:00,29.0,24.0,29.95,West,281,3.0,10.0,80,0.00,,,0.01,,2013-02-24 00:22:00,
2013-02-23 19:32:00,29.0,24.0,29.95,West,270,1.0,9.0,80,0.00,,,0.01,,2013-02-24 00:32:00,
2013-02-23 19:42:00,29.0,24.0,29.95,West,270,1.0,9.0,80,0.00,,,0.01,,2013-02-24 00:42:00,
2013-02-23 19:52:00,29.0,25.0,29.95,West,275,5.0,8.0,83,0.00,,,0.01,,2013-02-24 00:52:00,
2013-02-23 20:01:00,29.0,25.0,29.95,West,281,5.0,11.0,84,0.00,,,0.01,,2013-02-24 01:01:00,
2013-02-23 20:11:00,29.0,25.0,29.95,West,281,5.0,11.0,84,0.00,,,0.01,,2013-02-24 01:11:00,
2013-02-23 20:22:00,29.0,25.0,29.95,West,281,5.0,11.0,84,0.00,,,0.01,,2013-02-24 01:22:00,
2013-02-23 20:32:00,28.0,24.0,29.96,West,279,5.0,11.0,84,0.00,,,0.01,,2013-02-24 01:32:00,
2013-02-23 20:42:00,28.0,24.0,29.96,West,279,5.0,11.0,84,0.00,,,0.01,,2013-02-24 01:42:00,
2013-02-23 20:52:00,28.0,24.0,29.96,West,279,5.0,11.0,84,0.00,,,0.01,,2013-02-24 01:52:00,
2013-02-23 21:01:00,28.0,24.0,29.96,West,279,5.0,11.0,84,0.00,,,0.01,,2013-02-24 02:01:00,
2013-02-23 21:22:00,28.0,24.0,29.96,WNW,285,2.0,8.0,83,0.00,,,0.01,,2013-02-24 02:22:00,
2013-02-23 21:32:00,28.0,24.0,29.96,WNW,285,2.0,8.0,83,0.00,,,0.01,,2013-02-24 02:32:00,
2013-02-23 21:42:00,28.0,24.0,29.96,WNW,285,2.0,8.0,83,0.00,,,0.01,,2013-02-24 02:42:00,
2013-02-23 21:52:00,28.0,24.0,29.96,West,278,4.0,9.0,85,0.00,,,0.01,,2013-02-24 02:52:00,
2013-02-23 22:02:00,28.0,24.0,29.96,West,278,4.0,9.0,85,0.00,,,0.01,,2013-02-24 03:02:00,
2013-02-23 22:12:00,28.0,24.0,29.96,West,278,4.0,9.0,85,0.00,,,0.01,,2013-02-24 03:12:00,
2013-02-23 22:22:00,28.0,24.0,29.96,West,278,4.0,9.0,85,0.00,,,0.01,,2013-02-24 03:22:00,
2013-02-23 22:52:00,27.0,23.0,29.96,WNW,296,6.0,11.0,84,0.00,,,0.01,,2013-02-24 03:52:00,
2013-02-23 23:02:00,27.0,23.0,29.96,West,271,5.0,9.0,86,0.00,,,0.01,,2013-02-24 04:02:00,
2013-02-23 23:11:00,27.0,23.0,29.96,West,271,5.0,9.0,86,0.00,,,0.01,,2013-02-24 04:11:00,
2013-02-23 23:22:00,27.0,23.0,29.96,NW,313,7.0,15.0,84,0.00,,,0.01,,2013-02-24 04:22:00,
2013-02-23 23:32:00,27.0,23.0,29.95,NW,311,7.0,13.0,85,0.00,,,0.01,,2013-02-24 04:32:00,
2013-02-23 23:42:00,27.0,23.0,29.95,NW,311,7.0,13.0,85,0.00,,,0.01,,2013-02-24 04:42:00,
2013-02-23 23:52:00,27.0,23.0,29.95,WNW,284,7.0,11.0,85,0.00,,,0.01,,2013-02-24 04:52:00,